Location: Seattle
(47.6064°N, 122.3308°W)
Time: 08:07:36
(UTC-08:00)

Transit 2A - Visible Passes

Search period start: 24 November 2020 00:00
Search period end: 04 December 2020 00:00
Orbit: 594 x 964 km, 66.7° (Epoch: 24 November)

Date Brightness Start Highest point End Pass type
(mag) Time Alt. Az. Time Alt. Az. Time Alt. Az.
24 Nov 8.0 16:58:05 10° SE 17:01:48 16° ESE 17:05:26 10° ENE visible
24 Nov 6.3 18:37:55 10° SSW 18:44:15 80° ESE 18:46:30 42° NE visible
24 Nov 8.1 20:22:49 10° W 20:27:01 27° WNW 20:27:01 27° WNW visible
25 Nov 6.4 18:03:54 10° SSW 18:10:08 61° ESE 18:13:44 25° NE visible
25 Nov 7.6 19:48:02 10° WSW 19:53:43 35° NW 19:54:14 34° NNW visible
26 Nov 6.8 17:30:05 10° S 17:36:03 45° ESE 17:40:52 15° NE visible
26 Nov 7.3 19:13:23 10° WSW 19:19:23 44° NW 19:21:22 34° N visible
26 Nov 9.0 21:00:31 10° WNW 21:01:53 13° NW 21:01:53 13° NW visible
27 Nov 7.2 16:56:28 10° S 17:02:01 33° ESE 17:07:21 10° NE visible
27 Nov 6.9 18:38:52 10° SW 18:45:05 57° NW 18:48:26 26° NNE visible
27 Nov 8.5 20:25:21 10° WNW 20:28:57 18° NW 20:28:57 18° NW visible
28 Nov 6.5 18:04:30 10° SW 18:10:50 74° NW 18:15:26 18° NNE visible
28 Nov 8.2 19:50:18 10° W 19:55:01 22° NNW 19:55:56 21° NNW visible
29 Nov 6.4 17:30:18 10° SSW 17:36:38 85° ESE 17:42:23 11° NE visible
29 Nov 8.0 19:15:22 10° W 19:20:33 27° NW 19:22:53 21° N visible
30 Nov 6.5 16:56:15 10° SSW 17:02:30 64° ESE 17:08:24 10° NE visible
30 Nov 7.7 18:40:33 10° WSW 18:46:08 33° NW 18:49:46 18° NNE visible
30 Nov 8.8 20:28:24 10° NW 20:30:16 13° NNW 20:30:16 13° NNW visible
01 Dec 7.4 18:05:52 10° WSW 18:11:46 42° NW 18:16:38 13° NNE visible
01 Dec 8.5 19:53:09 10° WNW 19:56:32 15° NNW 19:57:08 15° NNW visible
02 Dec 7.0 17:31:20 10° SW 17:37:28 54° NW 17:43:13 10° NNE visible
02 Dec 8.3 19:17:59 10° WNW 19:21:58 18° NNW 19:23:57 15° N visible
03 Dec 6.7 16:56:56 10° SW 17:03:12 70° NW 17:09:06 10° NNE visible
03 Dec 8.2 18:42:53 10° W 18:47:26 21° NNW 18:50:45 14° N visible
